Regional Weather Roundup
Issued by NWS Sterling, VA

Current Version | Previous Version | Text Only | Print | Product List | Glossary On
Versions: 1 2 3 4 5 6 7 8 9 10 11 12 13 14 15 16 17 18 19 20 21 22 23 24 25 26 27 28 29 30 31 32 33 34 35 36 37 38 39 40 41 42 43 44 45 46 47 48 49 50
000
ASUS41 KLWX 030110
RWRLWX

REGIONAL WEATHER ROUNDUP
NATIONAL WEATHER SERVICE BALTIMORE MD/WASHINGTON DC
800 PM EST FRI DEC 02 2016

Note: "FAIR" indicates few or no clouds below 12,000 feet
with no significant weather and/or obstructions to visibility.
 TC=TEMPERATURE CELSIUS

 * =Non NWS site. Station does not report precipitation (e.g. rain,
    snow, etc.), thunder, or fog.

DCZ001-MDZ009-015-VAZ040>042-051-053>054-030200-
WASHINGTON METRO

CITY           SKY/WX    TMP DP  RH WIND       PRES   REMARKS
WASHINGTON NAT MOCLDY    46  28  49 NW16G28   30.12R
DULLES         CLOUDY    43  27  53 W12G22    30.12R
ANDREWS AFB    PTCLDY    43  27  52 NW18      30.09R
FT BELVOIR     MOCLDY    44  28  54 NW20      30.12R
QUANTICO       CLOUDY    44  29  55 N9        30.14R
COLLEGE PARK*  CLOUDY    43  28  56 W8G21     30.11R
LEESBURG*      CLOUDY    43  32  65 W14G22    30.11F
GAITHERSBURG*  CLOUDY    41  25  52 W15G25    30.12F

$$

MDZ006>007-011-014-030200-
BALTIMORE METRO

CITY           SKY/WX    TMP DP  RH WIND       PRES   REMARKS
BWI AIRPORT    CLOUDY    43  28  55 W10       30.08F
MD SCIENCE CTR   N/A     45  26  47 MISG      30.08S
MARTIN STATE   CLOUDY    46  30  53 W9G20     30.09R
ANNAPOLIS      CLOUDY    46  28  49 W12G18    30.09S
FORT MEADE*    CLOUDY    43  28  56 W7G18     30.12S

$$

MDZ012-015-019>023-030200-
MARYLAND EASTERN SHORE

CITY           SKY/WX    TMP DP  RH WIND       PRES   REMARKS
OCEAN CITY     CLEAR     43  29  57 NW9       30.06S
SALISBURY      CLEAR     42  30  62 NW9       30.06S
BAY BRIDGE AP* CLOUDY    45  28  53 W15G22    30.09F
CAMBRIDGE*     CLEAR     43  30  61 NW14G20   30.07S
EASTON*        PTCLDY    45  28  53 NW15      30.12R

$$

MDZ017>025-030200-
SOUTHERN MARYLAND

CITY           SKY/WX    TMP DP  RH WIND       PRES   REMARKS
PATUXENT RIVER PTCLDY    44  28  53 NW21G26   30.09R
ST INIGOES     CLEAR     45  30  55 VRB3      30.09R
LEONARDTOWN*   CLEAR     43  30  61 NW6       30.11R

$$

MDZ003>005-030200-
NORTH CENTRAL MARYLAND

CITY           SKY/WX    TMP DP  RH WIND       PRES   REMARKS
FREDERICK*     NOT AVBL
HAGERSTOWN APT CLOUDY    41  26  55 W10       30.07S
WESTMINSTER*   CLOUDY    39  27  60 W10       30.04F

$$

MDZ501>502-030200-
WESTERN MARYLAND

CITY           SKY/WX    TMP DP  RH WIND       PRES   REMARKS
OAKLAND*       CLOUDY    28  28 100 W17G25    30.05R WCI  16
CUMBERLAND*    NOT AVBL

$$

VAZ025>031-030200-
SHENANDOAH VALLEY

CITY           SKY/WX    TMP DP  RH WIND       PRES   REMARKS
WINCHESTER*    CLOUDY    39  27  60 W16G22    30.11R
FRONT ROYAL*   CLOUDY    41  27  56 W5G16     30.11S
LURAY*         CLOUDY    41  30  65 NW8       30.13R
NEW MARKET*    CLOUDY    39  24  55 NW5       30.13R
STAUNTON*      CLOUDY    38  27  63 NW12      30.14R
WAYNESBORO*    CLOUDY    39  27  62 W5        30.11R

$$

WVZ021-048>050-054>055-030200-
EASTERN WEST VIRGINIA PANHANDLE

CITY           SKY/WX    TMP DP  RH WIND       PRES   REMARKS
MARTINSBURG    CLOUDY    41  26  55 W13       30.11R
PETERSBURG*    CLOUDY    40  28  60 CALM      30.14S

$$

VAZ036>039-050-030200-
CENTRAL FOOTHILLS

CITY           SKY/WX    TMP DP  RH WIND       PRES   REMARKS
CHARLOTTESVILL CLEAR     43  27  53 NW5       30.11R
CULPEPER*      MOCLDY    44  30  58 CALM      30.14R
ORANGE*          N/A     43  30  61 CALM      30.13R
GORDONSVILLE*  FAIR      43  29  56 W6        30.11R
WARRENTON*     MOCLDY    43  25  49 N9G16     30.12R

$$

VAZ055>057-030200-
NORTH AND CENTRAL PIEDMONT

CITY           SKY/WX    TMP DP  RH WIND       PRES   REMARKS
FREDERICKSBRG* CLOUDY    44  32  62 NW7       30.12R
STAFFORD*      CLOUDY    42  31  65 NW10      30.16R

$$

NCZ024-NYZ072-PAZ021-071-VAZ022-071-030200-
OTHER REGIONAL OBSERVATIONS

CITY           SKY/WX    TMP DP  RH WIND       PRES   REMARKS
NEW YORK CITY  MOCLDY    47  28  47 W13G22    29.92S
PHILADELPHIA   CLOUDY    45  28  51 W20G25    30.01S
PITTSBURGH     FLURRIES  38  32  79 W10       30.13R
ROANOKE        PTCLDY    43  28  55 NW18G25   30.17R
RICHMOND       CLEAR     47  30  51 N8        30.09R
RALEIGH        PTCLDY    43  32  65 CALM      30.14R

$$

ANZ530>537-030200-
MARINE OBSERVATIONS

STATION/POSITION TIME  TEMP    WIND        PRES
                       AIR SEA DIR/SP/G
                 (UTC) (F)     (DEG/KT/KT) (MB)
THOMAS PT LIGHT  0100   45 50  290/ 19/ 24   N/A
BALT KEY BRIDGE  0036   45     250/ 18/ 20 1018.4S
COVE POINT       0036   45     350/ 23/ 26 1019.1S
LEWISETTA        0036   47 52   10/ 12/ 16 1018.4R
SOLOMONS ISLAND  0036   45 52  340/ 15/ 19   N/A
PINEY POINT      0030          360/ 14/ 16   N/A

$$




USA.gov is the U.S. government's official web portal to all federal, state and local government web resources and services.